[[{"header":{"parameterUnit":"m.s-1","parameterCategory":1,"la1":30.2991,"la2":30.254,"lo1":-89.0895,"lo2":-89.0444,"dy":0.0017,"dx":0.0017,"nx":28,"ny":28,"refTime":"2024-06-10T21:00:00:Z","depth":0,"parameterNumber":2,"parameterNumberName":"U-component_of_WINDS"},"data":[0,0,0,0,0,0,0,0,0,0,0,0,0,0,0,0,0,0,0,0,0,0,0,0,0,0,0,0,0,0,0,0,0,0,0,0,0,0,0,0,0,0,0,0,0,0,0,0,0,0,0,0,0,0,0,0,0,0,-3.6916,-3.6916,0,-3.6895,-3.6895,-3.6895,-3.6813,-3.6811,-3.6809,-3.6807,-3.6789,-3.679,-3.6791,0,0,0,0,0,0,0,0,0,0,0,0,0,-3.6887,-3.6888,-3.6916,-3.6916,-3.6916,-3.6895,-3.6895,-3.6895,-3.6813,-3.6811,-3.6808,-3.6806,-3.6788,-3.679,-3.6791,0,0,0,0,0,0,0,0,0,0,0,0,0,-3.6887,-3.6889,-3.6916,-3.6872,-3.6868,-3.6895,-3.6895,-3.6895,-3.6814,-3.6811,-3.6808,-3.6805,-3.6788,-3.6789,-3.6791,-3.686,0,0,-3.6797,-3.6798,0,0,0,0,0,0,0,0,-3.6887,-3.6888,-3.6879,-3.6875,-3.6871,-3.6854,-3.6878,-3.6883,-3.6814,-3.6834,-3.6807,-3.6804,-3.6813,-3.6812,-3.6815,-3.6859,-3.6858,-3.6797,-3.6799,-3.6799,-3.68,0,0,0,0,0,0,0,-3.6887,-3.6888,-3.6908,-3.6879,-3.6874,-3.6854,-3.6851,-3.6879,-3.684,-3.6832,-3.6826,-3.6825,-3.681,-3.6813,-3.6814,-3.6858,-3.6797,-3.6799,-3.68,-3.6801,-3.6959,-3.6962,0,0,0,0,0,0,-3.6893,-3.6889,-3.6909,-3.6907,-3.6872,-3.6857,-3.6854,-3.6862,-3.6839,-3.6833,-3.6827,-3.6821,-3.6811,-3.6812,-3.6813,-3.6893,-3.6799,-3.6801,-3.6802,-3.6956,-3.696,-3.6963,0,0,0,0,0,0,-3.6893,-3.6895,-3.6909,-3.6896,-3.6897,-3.6861,-3.6871,-3.6863,-3.6866,-3.6835,-3.6828,-3.6838,-3.6809,-3.681,-3.6849,-3.6891,-3.6802,-3.6804,-3.6952,-3.6957,-3.6961,-3.7053,0,0,0,0,0,0,-3.6892,-3.6896,-3.6921,-3.6897,-3.6898,-3.6946,-3.6873,-3.6865,-3.6869,-3.6861,-3.6843,-3.6838,-3.6807,-3.6847,-3.6851,-3.6892,-3.6805,-3.6948,-3.6954,-3.696,-3.7046,-3.706,-3.7072,0,0,0,0,0,-3.6891,-3.6948,-3.6923,-3.6926,-3.6928,-3.6948,-3.6948,-3.6911,-3.6873,-3.6899,-3.6879,-3.6838,-3.6885,-3.6851,-3.6855,-3.6898,-3.6946,-3.6953,-3.6959,-3.704,-3.7057,-3.7071,0,0,0,0,0,0,-3.6978,-3.6944,-3.6916,-3.6966,-3.6961,-3.6934,-3.6965,-3.693,-3.6936,-3.6928,-3.6882,-3.6879,-3.6925,-3.6915,-3.6877,-3.6963,-3.6909,-3.6917,-3.6968,-3.6984,-3.6997,-3.6999,-3.6807,0,0,0,0,0,-3.7003,-3.7021,-3.699,-3.7038,-3.7037,-3.7002,-3.7009,-3.6981,-3.6973,-3.6971,-3.6954,-3.6949,-3.6962,-3.6973,-3.6983,-3.7043,-3.7039,-3.7074,-3.7087,-3.7098,-3.7106,-3.7138,-3.7154,-3.6985,-3.6985,-3.6985,0,0,-3.7055,-3.7038,-3.7053,-3.7055,-3.7047,-3.7068,-3.7,-3.7025,-3.704,-3.6975,-3.701,-3.6998,-3.6989,-3.704,-3.7061,-3.7033,-3.7152,-3.7107,-3.7116,-3.7118,-3.7147,-3.7163,-3.7177,-3.699,-3.6989,-3.6988,0,0,-3.716,-3.7149,-3.7188,-3.7181,-3.717,-3.7147,-3.7156,-3.7135,-3.7124,-3.7159,-3.711,-3.7128,-3.7152,-3.7149,-3.715,-3.7254,-3.7217,-3.7259,-3.7327,-3.7359,-3.7372,-3.7384,-3.7422,-3.7436,-3.7266,-3.7267,-3.7267,0,-3.7227,-3.7255,-3.7213,-3.724,-3.7243,-3.7184,-3.7224,-3.722,-3.7213,-3.7217,-3.7185,-3.7215,-3.7205,-3.7254,-3.7279,-3.7282,-3.7292,-3.7261,-3.7374,-3.7385,-3.7395,-3.7431,-3.7446,-3.7272,-3.7271,-3.7271,-3.727,0,-3.7338,-3.7358,-3.7391,-3.7385,-3.7392,-3.7426,-3.7389,-3.7401,-3.7372,-3.7352,-3.7389,-3.7375,-3.7382,-3.7391,-3.7364,-3.7437,-3.742,-3.7382,-3.7326,-3.7417,-3.745,-3.7464,-3.7279,-3.7278,-3.7276,-3.7275,0,0,-3.7498,-3.7468,-3.7481,-3.7478,-3.7462,-3.7477,-3.7508,-3.7515,-3.7526,-3.7524,-3.755,-3.7571,-3.7536,-3.7538,-3.7509,-3.7537,-3.7622,-3.7495,-3.7494,-3.752,-3.7703,-3.7733,-3.7749,-3.7596,-3.7599,-3.7601,-3.7704,0,-3.7599,-3.765,-3.7613,-3.7671,-3.769,-3.7634,-3.7661,-3.7655,-3.7637,-3.7651,-3.7631,-3.7648,-3.76,-3.76,-3.7625,-3.7606,-3.7658,-3.7598,-3.7622,-3.7623,-3.7627,-3.7766,-3.7798,-3.7896,-3.7716,-3.7718,-3.772,0,-3.7725,-3.7727,-3.7787,-3.7767,-3.7773,-3.7799,-3.7802,-3.7815,-3.7807,-3.7792,-3.7794,-3.7758,-3.7788,-3.7733,-3.7775,-3.7735,-3.7742,-3.7734,-3.7737,-3.7739,-3.7678,-3.7773,-3.7926,-3.7941,-3.774,-3.7738,-3.7737,0,-3.7837,-3.7856,-3.7894,-3.7893,-3.787,-3.7889,-3.7881,-3.7869,-3.7876,-3.7878,-3.7882,-3.7889,-3.7893,-3.79,-3.7867,-3.7829,-3.7914,-3.7855,-3.7904,-3.7905,-3.7925,-3.7925,-3.8082,-3.7928,-3.7928,-3.7927,-3.7927,0,-3.7955,-3.7995,-3.7944,-3.7968,-3.801,-3.7967,-3.8011,-3.7997,-3.7987,-3.8008,-3.7959,-3.798,-3.7935,-3.7951,-3.7926,-3.7965,-3.7967,-3.7957,-3.795,-3.7962,-3.7964,-3.7967,-3.796,-3.7931,-3.793,-3.793,-3.7929,0,-3.8089,-3.8057,-3.8095,-3.807,-3.8064,-3.8097,-3.8076,-3.8097,-3.8076,-3.8103,-3.8107,-3.8074,-3.809,-3.8058,-3.8071,-3.8054,-3.8109,-3.8091,-3.8112,-3.8107,-3.8158,-3.8154,-3.8325,-3.8346,-3.8177,-3.8179,-3.818,0,-3.8167,-3.8196,-3.8174,-3.8184,-3.8178,-3.8194,-3.82,-3.8159,-3.8168,-3.816,-3.8183,-3.8196,-3.8204,-3.8233,-3.8211,-3.8221,-3.8203,-3.8262,-3.8205,-3.8216,-3.8206,-3.8205,-3.8208,-3.8275,-3.8277,-3.8279,-3.828,0,-3.831,-3.8292,-3.8302,-3.8307,-3.8316,-3.8318,-3.8316,-3.8328,-3.8284,-3.8296,-3.8312,-3.8318,-3.8331,-3.8345,-3.8349,-3.8341,-3.8305,-3.8298,-3.831,-3.8323,-3.8335,-3.8331,-3.8146,-3.8295,-3.8293,-3.8292,-3.8291,-3.8291,-3.8419,-3.8442,-3.843,-3.8443,-3.8438,-3.8438,-3.8457,-3.8437,-3.845,-3.8456,-3.8431,-3.8454,-3.8445,-3.8447,-3.8443,-3.846,-3.8434,-3.8451,-3.8456,-3.8461,-3.847,-3.8331,-3.8461,-3.846,-3.846,-3.846,-3.8459,0,-3.856,-3.8549,-3.8562,-3.8561,-3.8572,-3.8534,-3.8531,-3.8543,-3.8563,-3.8557,-3.8566,-3.8585,-3.8598,-3.8576,-3.8586,-3.8604,-3.8588,-3.8608,-3.8607,-3.8607,-3.8492,-3.8481,-3.8622,-3.8622,-3.8622,-3.8622,-3.8622,-3.8622,-3.8635,-3.8672,-3.8653,-3.8688,-3.8677,-3.8698,-3.8699,-3.87,-3.8695,-3.8718,-3.8728,-3.8714,-3.8702,-3.8711,-3.8722,-3.8715,-3.8722,-3.8749,-3.8737,-3.863,-3.8614,-3.8599,-3.8589,-3.875,-3.875,-3.885,-3.8851,-3.8851]},{"header":{"parameterUnit":"m.s-1","parameterCategory":1,"la1":30.2991,"la2":30.254,"lo1":-89.0895,"lo2":-89.0444,"dy":0.0017,"dx":0.0017,"nx":28,"ny":28,"refTime":"2024-06-10T21:00:00:Z","depth":0,"parameterNumber":3,"parameterNumberName":"V-component_of_WINDS"},"data":[0,0,0,0,0,0,0,0,0,0,0,0,0,0,0,0,0,0,0,0,0,0,0,0,0,0,0,0,0,0,0,0,0,0,0,0,0,0,0,0,0,0,0,0,0,0,0,0,0,0,0,0,0,0,0,0,0,0,-2.1586,-2.1587,0,-2.1599,-2.1599,-2.16,-2.1573,-2.1572,-2.1571,-2.157,-2.1583,-2.1584,-2.1585,0,0,0,0,0,0,0,0,0,0,0,0,0,-2.1538,-2.1539,-2.1586,-2.1587,-2.1587,-2.1599,-2.1599,-2.16,-2.1573,-2.1572,-2.1571,-2.157,-2.1582,-2.1584,-2.1585,0,0,0,0,0,0,0,0,0,0,0,0,0,-2.1556,-2.1539,-2.1586,-2.1575,-2.1574,-2.1599,-2.1599,-2.16,-2.1573,-2.1572,-2.1571,-2.157,-2.1582,-2.1584,-2.1585,-2.1622,0,0,-2.159,-2.1591,0,0,0,0,0,0,0,0,-2.1555,-2.1557,-2.1577,-2.1576,-2.1575,-2.1583,-2.1587,-2.1607,-2.1574,-2.1574,-2.157,-2.1569,-2.1584,-2.1585,-2.1591,-2.1622,-2.1623,-2.1591,-2.1592,-2.1592,-2.1593,0,0,0,0,0,0,0,-2.1553,-2.1557,-2.1591,-2.1577,-2.1576,-2.1569,-2.157,-2.159,-2.1586,-2.1574,-2.1572,-2.1574,-2.1583,-2.1589,-2.1591,-2.1623,-2.1591,-2.1592,-2.1593,-2.1594,-2.1684,-2.1686,0,0,0,0,0,0,-2.1554,-2.1556,-2.1591,-2.1592,-2.1561,-2.1571,-2.1572,-2.1582,-2.1586,-2.1585,-2.1575,-2.1572,-2.1587,-2.1589,-2.1591,-2.1634,-2.1592,-2.1594,-2.1595,-2.1683,-2.1685,-2.1686,0,0,0,0,0,0,-2.1553,-2.1557,-2.1591,-2.1573,-2.1577,-2.1573,-2.1584,-2.1583,-2.1589,-2.1586,-2.1585,-2.1582,-2.1586,-2.1589,-2.1614,-2.1634,-2.1595,-2.1596,-2.1681,-2.1683,-2.1685,-2.1719,0,0,0,0,0,0,-2.1551,-2.1557,-2.1571,-2.1574,-2.1578,-2.1614,-2.1585,-2.1584,-2.1592,-2.1589,-2.1593,-2.1592,-2.1585,-2.1612,-2.1616,-2.1635,-2.1598,-2.1679,-2.1682,-2.1685,-2.1716,-2.1722,-2.1727,0,0,0,0,0,-2.155,-2.158,-2.1572,-2.1576,-2.1596,-2.1615,-2.1618,-2.1609,-2.1593,-2.1607,-2.1606,-2.1592,-2.1631,-2.1615,-2.1619,-2.1639,-2.1678,-2.1681,-2.1684,-2.1714,-2.1721,-2.1727,0,0,0,0,0,0,-2.158,-2.158,-2.1571,-2.1603,-2.1609,-2.1611,-2.1628,-2.1617,-2.1628,-2.1624,-2.1613,-2.1614,-2.1642,-2.1643,-2.1625,-2.1674,-2.1652,-2.1656,-2.1673,-2.1679,-2.1685,-2.1684,-2.1599,0,0,0,0,0,-2.159,-2.1606,-2.1605,-2.1634,-2.1637,-2.1632,-2.164,-2.1633,-2.1639,-2.1641,-2.1642,-2.1648,-2.1661,-2.167,-2.1682,-2.1716,-2.1716,-2.1732,-2.1737,-2.1742,-2.1746,-2.1763,-2.177,-2.1696,-2.1696,-2.1696,0,0,-2.1611,-2.1614,-2.1625,-2.164,-2.1644,-2.166,-2.1635,-2.1653,-2.1665,-2.1644,-2.1668,-2.1669,-2.1674,-2.1704,-2.1717,-2.1706,-2.1766,-2.1746,-2.175,-2.1751,-2.1767,-2.1774,-2.1781,-2.1698,-2.1698,-2.1698,0,0,-2.1659,-2.1663,-2.1686,-2.1691,-2.1697,-2.1693,-2.1699,-2.1702,-2.1701,-2.1725,-2.171,-2.1723,-2.1747,-2.1751,-2.1757,-2.1805,-2.1793,-2.181,-2.1838,-2.1855,-2.1861,-2.1866,-2.1884,-2.189,-2.1813,-2.1813,-2.1814,0,-2.1685,-2.171,-2.17,-2.172,-2.1727,-2.1708,-2.1732,-2.1736,-2.1746,-2.1751,-2.1738,-2.1767,-2.177,-2.18,-2.1812,-2.1817,-2.1823,-2.1809,-2.1861,-2.1866,-2.1871,-2.1887,-2.1894,-2.1815,-2.1815,-2.1815,-2.1815,0,-2.1741,-2.1758,-2.1777,-2.1787,-2.1796,-2.1817,-2.181,-2.1821,-2.1812,-2.181,-2.1834,-2.1837,-2.1849,-2.1855,-2.1848,-2.1885,-2.1877,-2.1863,-2.184,-2.188,-2.1895,-2.1902,-2.1818,-2.1818,-2.1817,-2.1817,0,0,-2.1808,-2.1812,-2.1819,-2.1824,-2.1829,-2.1842,-2.1862,-2.1874,-2.1883,-2.189,-2.1907,-2.1927,-2.1913,-2.1919,-2.1912,-2.1927,-2.1965,-2.1911,-2.1911,-2.1921,-2.2006,-2.2017,-2.2024,-2.1957,-2.1958,-2.1959,-2.2005,0,-2.1856,-2.1891,-2.1883,-2.1918,-2.1933,-2.1916,-2.1933,-2.1938,-2.1936,-2.1949,-2.1946,-2.1961,-2.1942,-2.1945,-2.196,-2.1958,-2.1982,-2.1954,-2.1972,-2.1973,-2.1972,-2.2032,-2.2044,-2.2088,-2.2011,-2.2012,-2.2013,0,-2.1916,-2.1925,-2.1962,-2.1964,-2.197,-2.1986,-2.1996,-2.2009,-2.2014,-2.2011,-2.2018,-2.2007,-2.2027,-2.2003,-2.203,-2.2011,-2.2018,-2.2018,-2.202,-2.2021,-2.1996,-2.2036,-2.2102,-2.2108,-2.2022,-2.2021,-2.2021,0,-2.1961,-2.1983,-2.2008,-2.2012,-2.2015,-2.2027,-2.2028,-2.2032,-2.204,-2.2048,-2.2053,-2.2064,-2.207,-2.2078,-2.2071,-2.2054,-2.2099,-2.2075,-2.2097,-2.2097,-2.2107,-2.2107,-2.2176,-2.2111,-2.2111,-2.2111,-2.2111,0,-2.2015,-2.2038,-2.2028,-2.2044,-2.2069,-2.2058,-2.2083,-2.2083,-2.2086,-2.2101,-2.2086,-2.21,-2.2089,-2.2101,-2.2095,-2.2118,-2.2121,-2.2119,-2.2118,-2.2121,-2.2121,-2.2126,-2.2122,-2.2113,-2.2112,-2.2112,-2.2112,0,-2.2071,-2.2065,-2.2091,-2.2091,-2.2092,-2.211,-2.2111,-2.2124,-2.2121,-2.214,-2.2143,-2.2138,-2.2152,-2.2145,-2.216,-2.2156,-2.2186,-2.218,-2.2184,-2.2183,-2.2205,-2.2203,-2.2279,-2.2289,-2.2218,-2.2219,-2.222,0,-2.2105,-2.2123,-2.2125,-2.2134,-2.2137,-2.2151,-2.2159,-2.2149,-2.2157,-2.2164,-2.2177,-2.219,-2.2199,-2.2223,-2.222,-2.2231,-2.2226,-2.2251,-2.2227,-2.223,-2.2226,-2.2225,-2.2227,-2.2256,-2.2257,-2.2258,-2.2258,0,-2.2168,-2.2164,-2.2176,-2.2187,-2.2196,-2.2204,-2.2211,-2.2219,-2.2209,-2.2219,-2.2233,-2.2241,-2.2256,-2.2269,-2.2279,-2.228,-2.2268,-2.2266,-2.2272,-2.2275,-2.2277,-2.2277,-2.2198,-2.2264,-2.2264,-2.2263,-2.2263,-2.2263,-2.2214,-2.2229,-2.2232,-2.2246,-2.225,-2.2256,-2.2269,-2.2267,-2.2279,-2.2291,-2.2284,-2.2301,-2.2304,-2.2316,-2.2319,-2.2332,-2.2321,-2.233,-2.2332,-2.2334,-2.2337,-2.2275,-2.2333,-2.2333,-2.2333,-2.2333,-2.2333,0,-2.2276,-2.2277,-2.229,-2.2299,-2.231,-2.2297,-2.2304,-2.2313,-2.2328,-2.2333,-2.2343,-2.2359,-2.2371,-2.2369,-2.2381,-2.2391,-2.2386,-2.2394,-2.2394,-2.2394,-2.2346,-2.234,-2.2399,-2.2399,-2.2399,-2.2399,-2.2399,-2.2399,-2.2309,-2.2333,-2.233,-2.2355,-2.2356,-2.2372,-2.2377,-2.2383,-2.2386,-2.2405,-2.2415,-2.2414,-2.2416,-2.2427,-2.2438,-2.2437,-2.2441,-2.2452,-2.2449,-2.2404,-2.2398,-2.2391,-2.2386,-2.2453,-2.2453,-2.2497,-2.2497,-2.2497]}]]